TimeMST,TemperatureF,Dew PointF,Humidity,Sea Level PressureIn,VisibilityMPH,Wind Direction,Wind SpeedMPH,Gust SpeedMPH,PrecipitationIn,Events,Conditions,WindDirDegrees,DateUTC
12:56 AM,6.1,3.0,87,30.11,-9999.0,Calm,Calm,-,N/A,,Unknown,0,2012-12-11 07:56:00
1:56 AM,8.1,5.0,87,30.08,-9999.0,Calm,Calm,-,N/A,,Unknown,0,2012-12-11 08:56:00
2:56 AM,10.0,6.1,84,30.07,-9999.0,Calm,Calm,-,N/A,,Unknown,0,2012-12-11 09:56:00
3:56 AM,12.9,10.0,88,30.06,-9999.0,Calm,Calm,-,N/A,,Unknown,0,2012-12-11 10:56:00
4:56 AM,16.0,12.0,84,30.05,-9999.0,Variable,3.5,-,N/A,,Unknown,0,2012-12-11 11:56:00
5:56 AM,17.1,12.9,84,30.05,-9999.0,Variable,6.9,-,N/A,,Unknown,0,2012-12-11 12:56:00
6:56 AM,17.1,12.9,84,30.06,-9999.0,Variable,3.5,-,N/A,,Unknown,0,2012-12-11 13:56:00
7:56 AM,18.0,12.9,81,30.05,-9999.0,Variable,4.6,-,0.02,,Unknown,0,2012-12-11 14:56:00
8:56 AM,18.0,14.0,84,30.05,-9999.0,Variable,5.8,-,N/A,,Unknown,0,2012-12-11 15:56:00
9:56 AM,19.0,14.0,81,30.02,-9999.0,Variable,4.6,-,0.01,,Unknown,0,2012-12-11 16:56:00
10:56 AM,19.9,15.1,81,30.06,-9999.0,Variable,5.8,-,0.01,,Unknown,0,2012-12-11 17:56:00
11:56 AM,21.0,16.0,81,30.00,-9999.0,Variable,6.9,-,N/A,,Unknown,0,2012-12-11 18:56:00
12:56 PM,21.0,16.0,81,29.96,-9999.0,WSW,8.1,-,N/A,,Unknown,240,2012-12-11 19:56:00
1:56 PM,21.0,18.0,88,29.93,-9999.0,Variable,6.9,-,N/A,,Unknown,0,2012-12-11 20:56:00
2:56 PM,21.9,19.0,89,29.89,-9999.0,West,9.2,25.3,0.01,,Unknown,260,2012-12-11 21:56:00
3:56 PM,21.9,19.0,89,29.88,-9999.0,Variable,5.8,-,N/A,,Unknown,0,2012-12-11 22:56:00
4:56 PM,23.0,18.0,81,29.83,-9999.0,Variable,4.6,-,0.01,,Unknown,0,2012-12-11 23:56:00
5:56 PM,23.0,19.9,88,29.82,-9999.0,Variable,4.6,-,N/A,,Unknown,0,2012-12-12 00:56:00
6:56 PM,23.0,21.0,92,29.82,-9999.0,Calm,Calm,-,N/A,,Unknown,0,2012-12-12 01:56:00
7:56 PM,24.1,19.9,84,29.78,-9999.0,Variable,5.8,-,N/A,,Unknown,0,2012-12-12 02:56:00
8:56 PM,25.0,19.9,81,29.75,-9999.0,WSW,8.1,-,N/A,,Unknown,240,2012-12-12 03:56:00
9:56 PM,25.0,21.0,85,29.75,-9999.0,Variable,4.6,-,0.01,,Unknown,0,2012-12-12 04:56:00
10:56 PM,25.0,21.0,85,29.73,-9999.0,Variable,3.5,-,N/A,,Unknown,0,2012-12-12 05:56:00
11:56 PM,25.0,21.0,85,29.72,-9999.0,Variable,3.5,-,N/A,,Unknown,0,2012-12-12 06:56:00